Vorticity
9 8 8 5 6 10 12 13 13 4 5 9 5 6 16 51 34 37 24 17 20 8 6 -13 6 -4 -5 -2 14 27 16 3 9 -10 22 8 4 13 11 30 27 -2 -2
10 5 5 6 11 9 12 13 9 3 3 5 22 48 38 40 25 13 14 4 9 14 2 12 7 15 8 12 10 11 17 23 21 19 13 25 21 18 13 16 15 16 13
-1 4 7 22 5 -1 14 7 2 12 1 31 36 31 23 14 11 9 9 10 9 10 14 17 22 20 18 12 18 19 17 13 12 13 14 15 19 18 19 22 21 16 13
-4 -13 14 12 13 10 6 8 1 14 37 32 27 14 9 12 12 13 13 13 11 11 11 14 16 14 14 13 13 15 16 17 14 12 11 11 11 11 11 13 14 16 16
-26 -2 14 12 13 11 11 16 21 37 29 17 7 14 16 14 11 10 9 10 13 12 11 11 12 13 11 11 10 8 11 13 14 14 15 15 13 13 13 13 12 10 9
-5 16 15 11 9 16 16 34 33 22 14 12 16 9 8 9 11 10 10 10 11 11 9 7 7 7 8 8 8 9 7 12 13 12 13 18 18 17 16 16 15 14 19
14 16 13 13 13 25 31 23 23 12 14 9 8 8 9 12 14 15 15 15 15 14 10 9 11 10 9 8 8 8 9 14 13 16 15 12 11 22 27 32 35 37 41
16 10 14 14 29 29 29 14 12 11 7 8 10 14 18 19 19 19 20 21 21 21 20 19 14 11 11 13 14 16 16 16 16 8 18 31 19 11 10 9 7 6 5
9 14 16 27 21 28 13 13 7 8 8 12 19 20 23 23 22 22 24 24 25 24 23 23 23 20 18 15 13 16 18 13 19 20 5 6 10 11 11 10 10 9 6
12 15 25 17 30 13 13 6 10 7 13 18 21 19 18 13 18 21 20 19 20 22 23 23 21 23 21 20 17 17 12 19 5 16 21 25 27 29 27 21 19 20 18
14 22 21 25 13 13 6 10 7 10 17 20 20 21 21 19 15 17 20 20 21 22 21 24 25 27 25 20 16 23 8 15 11 5 2 8 15 19 18 20 22 20 24
20 21 18 18 12 7 9 8 8 13 20 19 16 15 16 16 17 14 28 29 24 23 27 32 32 24 19 23 20 7 17 3 6 12 20 18 13 8 10 10 14 13 12
22 26 22 10 10 8 10 7 8 14 22 12 16 21 20 19 14 17 26 28 28 32 32 23 15 14 16 12 17 17 1 10 23 24 21 21 18 20 14 13 14 9 8
37 24 12 13 7 10 7 7 9 16 17 13 19 19 19 13 18 21 27 28 27 15 14 10 16 19 19 16 11 6 14 22 17 15 17 22 26 28 26 15 12 15 9
27 12 15 7 8 12 7 8 10 17 13 15 18 21 19 24 23 28 15 19 19 10 10 15 19 18 18 11 8 17 12 12 6 5 6 7 9 19 26 33 27 15 6
7 16 7 8 11 11 7 8 12 17 13 14 20 22 20 23 23 18 16 11 12 12 10 19 19 18 10 11 9 5 7 7 3 4 6 8 9 8 13 21 29 38 36
15 9 5 5 9 13 9 10 13 17 14 14 21 21 19 22 19 12 9 10 16 13 13 14 11 8 4 5 2 3 3 4 5 5 4 4 6 6 8 9 14 27 27
12 4 3 4 8 12 8 11 12 15 14 14 20 19 19 15 22 8 6 11 16 15 8 8 9 5 3 2 4 10 7 5 6 7 5 3 4 6 7 4 6 7 26
7 2 4 2 9 11 10 9 14 14 16 12 19 17 18 22 16 7 5 10 13 15 14 7 5 10 14 14 11 11 10 8 8 7 5 5 6 7 7 9 7 6 6
7 3 4 1 10 10 8 8 16 11 18 10 18 18 16 30 16 5 3 4 6 8 10 12 11 10 9 10 7 8 8 7 8 7 6 7 8 8 6 7 7 7 6
6 3 3 3 12 10 8 7 17 14 10 18 11 18 17 22 20 6 4 2 2 2 3 4 4 4 4 7 9 9 10 10 9 7 8 8 7 5 7 8 9 6 4
9 6 5 5 12 8 7 9 16 17 10 11 16 15 18 17 21 22 6 4 2 2 2 1 3 2 6 6 7 9 10 12 12 10 10 10 7 7 6 6 7 5 4
9 6 8 9 10 7 7 13 16 15 15 10 12 16 16 16 18 19 25 10 7 7 4 3 5 4 6 5 6 7 6 8 8 9 10 10 8 7 8 6 6 6 5
11 11 6 12 7 6 11 18 16 12 11 15 10 12 17 15 16 16 20 24 15 8 8 8 6 5 6 4 5 7 7 6 6 8 7 7 9 11 10 8 7 6 5
10 7 12 10 5 4 13 21 17 11 10 12 17 10 12 18 13 17 16 20 19 24 10 8 9 8 6 5 6 5 6 6 5 6 6 6 4 6 8 10 10 9 8
9 13 9 7 3 6 8 21 18 12 10 10 14 16 11 12 17 13 15 17 18 17 25 18 9 7 9 9 9 9 8 9 8 7 7 6 4 3 3 7 10 10 11
Height
5651 5640 5630 5620 5610 5599 5589 5578 5567 5554 5544 5531 5520 5508 5494 5482 5472 5463 5459 5455 5453 5451 5448 5447 5447 5446 5446 5445 5446 5446 5446 5445 5448 5454 5453 5456 5460 5464 5469 5472 5477 5481 5482
5635 5624 5614 5603 5591 5579 5567 5555 5544 5532 5519 5509 5494 5481 5470 5461 5454 5449 5445 5443 5439 5435 5433 5432 5432 5431 5432 5431 5430 5430 5430 5431 5432 5435 5437 5439 5443 5447 5449 5453 5456 5460 5462
5617 5606 5595 5582 5570 5558 5547 5534 5522 5510 5497 5483 5472 5462 5454 5448 5441 5436 5432 5428 5425 5422 5419 5417 5416 5415 5415 5414 5415 5415 5415 5416 5417 5417 5422 5423 5425 5427 5431 5434 5436 5439 5443
5599 5588 5575 5562 5551 5539 5527 5513 5501 5486 5473 5463 5454 5447 5441 5435 5429 5423 5417 5413 5410 5407 5404 5401 5400 5400 5399 5399 5399 5400 5401 5402 5401 5400 5404 5407 5407 5409 5412 5416 5418 5419 5424
5580 5567 5555 5542 5529 5517 5505 5490 5477 5464 5455 5447 5440 5433 5426 5419 5414 5409 5403 5398 5395 5392 5389 5387 5385 5385 5385 5385 5386 5387 5387 5387 5387 5385 5386 5391 5391 5390 5392 5396 5399 5401 5404
5562 5549 5536 5523 5508 5494 5481 5468 5457 5448 5441 5433 5425 5418 5411 5404 5400 5393 5388 5382 5378 5376 5373 5372 5370 5371 5371 5372 5372 5373 5373 5372 5372 5370 5370 5374 5375 5373 5373 5376 5378 5381 5385
5541 5528 5515 5502 5489 5475 5462 5451 5442 5435 5427 5419 5411 5403 5395 5385 5380 5373 5368 5363 5360 5357 5355 5354 5354 5355 5356 5357 5357 5358 5358 5357 5357 5356 5356 5356 5357 5355 5355 5357 5358 5360 5362
5520 5508 5495 5483 5471 5459 5448 5439 5431 5423 5414 5405 5396 5386 5376 5366 5360 5353 5348 5343 5340 5337 5335 5334 5336 5339 5340 5342 5344 5345 5345 5345 5344 5342 5342 5341 5341 5341 5341 5343 5344 5346 5348
5503 5491 5478 5467 5456 5446 5437 5429 5420 5411 5401 5390 5379 5369 5359 5350 5342 5336 5330 5326 5322 5319 5316 5315 5317 5321 5324 5328 5331 5333 5333 5333 5331 5331 5330 5331 5330 5329 5328 5329 5332 5332 5335
5488 5476 5464 5453 5443 5435 5427 5419 5409 5399 5388 5376 5364 5354 5344 5336 5328 5323 5316 5311 5308 5304 5302 5300 5301 5305 5310 5315 5319 5322 5324 5323 5323 5322 5320 5318 5317 5316 5315 5316 5316 5318 5320
5472 5461 5451 5442 5434 5426 5417 5408 5399 5388 5376 5365 5354 5343 5333 5325 5318 5311 5305 5300 5296 5293 5290 5289 5290 5295 5300 5306 5310 5313 5315 5316 5316 5315 5314 5312 5310 5308 5306 5306 5307 5307 5308
5456 5447 5439 5431 5424 5416 5408 5399 5389 5378 5367 5355 5345 5335 5324 5316 5309 5301 5294 5288 5285 5283 5282 5282 5285 5289 5294 5299 5303 5307 5309 5311 5310 5309 5307 5305 5304 5303 5302 5301 5300 5300 5300
5442 5435 5428 5422 5415 5407 5399 5390 5380 5369 5358 5349 5338 5327 5317 5309 5302 5296 5289 5283 5280 5279 5279 5281 5284 5287 5291 5296 5299 5303 5306 5306 5305 5303 5302 5299 5297 5296 5295 5294 5293 5292 5292
5428 5423 5419 5413 5407 5399 5391 5382 5372 5362 5352 5342 5332 5322 5313 5305 5299 5293 5287 5283 5281 5281 5282 5284 5285 5287 5291 5294 5298 5301 5302 5302 5301 5300 5298 5296 5294 5291 5289 5288 5287 5286 5286
5418 5415 5411 5406 5399 5391 5384 5375 5364 5355 5346 5336 5326 5317 5310 5303 5297 5293 5289 5287 5286 5286 5286 5286 5286 5288 5291 5294 5298 5299 5300 5299 5299 5298 5296 5294 5292 5289 5286 5283 5280 5279 5278
5411 5408 5404 5399 5392 5385 5377 5368 5360 5350 5341 5332 5322 5314 5307 5302 5298 5295 5293 5291 5290 5290 5289 5289 5289 5290 5292 5295 5298 5299 5299 5299 5298 5297 5296 5294 5292 5289 5285 5281 5276 5272 5269
5406 5402 5398 5393 5387 5379 5371 5363 5354 5344 5336 5328 5319 5313 5307 5303 5300 5299 5297 5295 5294 5293 5293 5293 5293 5294 5295 5297 5299 5299 5299 5298 5298 5297 5296 5294 5292 5289 5286 5281 5276 5271 5266
5401 5398 5393 5388 5381 5374 5366 5358 5350 5341 5333 5325 5318 5312 5308 5305 5303 5301 5300 5298 5297 5296 5296 5296 5296 5297 5298 5298 5299 5299 5299 5298 5297 5297 5295 5294 5292 5289 5286 5282 5278 5273 5268
5396 5392 5388 5383 5376 5369 5362 5354 5346 5339 5331 5324 5317 5312 5308 5306 5304 5303 5302 5301 5300 5299 5298 5298 5298 5298 5298 5298 5298 5298 5298 5297 5297 5296 5295 5293 5291 5289 5286 5282 5279 5275 5271
5392 5388 5383 5378 5371 5364 5357 5350 5342 5335 5329 5323 5316 5311 5307 5305 5304 5304 5303 5302 5302 5301 5300 5299 5299 5299 5298 5298 5298 5297 5296 5296 5295 5294 5293 5292 5290 5288 5285 5283 5279 5276 5273
5387 5383 5378 5373 5366 5360 5353 5346 5339 5333 5327 5321 5315 5310 5307 5304 5303 5302 5302 5302 5301 5301 5300 5300 5299 5298 5298 5297 5296 5296 5295 5294 5293 5292 5291 5289 5288 5286 5284 5282 5280 5277 5274
5382 5378 5373 5368 5361 5355 5348 5342 5335 5329 5324 5319 5313 5309 5305 5302 5300 5299 5299 5299 5299 5298 5298 5298 5297 5297 5296 5295 5295 5294 5293 5292 5290 5289 5288 5287 5285 5284 5282 5280 5279 5277 5274
5377 5373 5368 5363 5356 5350 5344 5337 5331 5325 5320 5316 5311 5306 5302 5299 5296 5294 5293 5293 5293 5294 5294 5294 5294 5293 5293 5292 5292 5291 5290 5289 5288 5286 5285 5284 5282 5281 5280 5278 5276 5275 5273
5371 5367 5363 5357 5352 5346 5339 5332 5326 5321 5317 5312 5308 5303 5299 5295 5292 5290 5288 5287 5287 5287 5287 5288 5288 5288 5288 5287 5287 5287 5286 5285 5284 5283 5282 5280 5279 5277 5276 5275 5273 5272 5270
5366 5361 5357 5352 5347 5341 5334 5328 5322 5317 5313 5308 5303 5300 5296 5292 5288 5285 5283 5281 5280 5279 5280 5280 5281 5281 5281 5281 5281 5281 5280 5279 5279 5278 5277 5276 5274 5273 5272 5270 5269 5267 5266
5360 5356 5351 5347 5342 5336 5330 5323 5317 5313 5308 5303 5299 5295 5291 5288 5284 5281 5278 5276 5274 5273 5272 5272 5272 5273 5273 5273 5274 5273 5273 5273 5272 5271 5271 5270 5269 5268 5267 5265 5263 5262 5261